Location: El Bakhil
(32.7726°N, 5.5387°W)
Time: 04:42:58
(UTC+00:00)

Envisat - Pass Details

Date: 08 December 2021
Orbit: 764 x 766 km, 98.2° (Epoch: 25 January)

Event Time Altitude Azimuth Distance (km) Brightness Sun altitude
Rises 06:26:06 0° 352° (N) 3,236 6.0 -9.7°
Reaches altitude 10° 06:29:03 10° 335° (NNW) 2,305 5.1 -9.1°
Maximum altitude 06:32:25 18° 293° (WNW) 1,800 4.3 -8.5°
Drops below altitude 10° 06:35:47 10° 251° (WSW) 2,296 5.0 -7.8°
Sets 06:38:45 0° 233° (SW) 3,218 5.9 -7.2°
